Location: Miss�
(46.9484°N, 0.1922°W)
Time: 16:53:20
(UTC+00:00)

Cosmos 1602 - Pass Details

Date: 02 March 2021
Orbit: 512 x 534 km, 82.5° (Epoch: 19 April)

Event Time Altitude Azimuth Distance (km) Brightness Sun altitude
Rises 18:52:17 0° 190° (S) 2,647 7.4 -11.8°
Reaches altitude 10° 18:54:24 10° 191° (S) 1,767 6.5 -12.1°
Maximum altitude 18:58:17 81° 277° (W) 543 3.8 -12.8°
Drops below altitude 10° 19:02:15 10° 7° (N) 1,794 6.4 -13.5°
Sets 19:04:25 0° 9° (N) 2,692 7.3 -13.8°
